EST,Max TemperatureF,Mean TemperatureF,Min TemperatureF,Max Dew PointF,MeanDew PointF,Min DewpointF,Max Humidity, Mean Humidity, Min Humidity, Max Sea Level PressureIn, Mean Sea Level PressureIn, Min Sea Level PressureIn, Max VisibilityMiles, Mean VisibilityMiles, Min VisibilityMiles, Max Wind SpeedMPH, Mean Wind SpeedMPH, Max Gust SpeedMPH,PrecipitationIn, CloudCover, Events, WindDirDegrees
2011-11-1,63,50,36,35,31,26,89,58,27,30.34,30.28,30.21,10,10,10,7,2,9,0.00,0,,184
2011-11-2,69,55,41,36,31,28,62,44,26,30.36,30.26,30.14,10,10,10,9,3,16,0.00,0,,189
2011-11-3,66,57,48,49,43,31,93,66,39,30.12,29.95,29.86,10,7,0,10,3,20,0.66,5,Fog-Rain,158
2011-11-4,55,49,42,46,43,30,93,76,58,30.21,30.02,29.87,10,6,0,12,3,17,0.01,6,Fog-Rain,310
2011-11-5,62,49,35,35,30,25,64,48,32,30.32,30.25,30.21,10,10,10,7,2,13,0.00,0,,68
2011-11-6,65,53,40,33,29,25,55,43,30,30.41,30.32,30.23,10,10,10,7,3,12,0.00,0,,170
2011-11-7,70,58,46,45,41,34,66,53,40,30.39,30.31,30.24,10,10,10,6,2,12,0.00,0,,188
2011-11-8,73,61,48,46,43,40,80,59,37,30.24,30.17,30.10,10,10,10,8,2,14,0.00,0,,178
2011-11-9,66,55,43,54,47,33,86,71,55,30.10,30.00,29.92,10,9,2,18,5,28,0.09,5,Rain,214
2011-11-10,52,44,35,34,27,17,76,55,33,30.11,30.06,29.97,10,10,10,16,5,25,0.00,5,,272
2011-11-11,49,40,30,25,21,18,69,52,34,30.18,30.11,30.07,10,10,9,12,5,17,0.00,1,Snow,239
2011-11-12,65,53,41,29,25,22,49,36,23,30.17,30.11,30.05,10,10,10,13,6,23,0.00,0,,204
2011-11-13,67,59,51,47,36,23,60,44,28,30.05,29.96,29.88,10,10,10,15,7,32,0.00,3,,195
2011-11-14,73,68,62,56,53,48,73,65,56,29.93,29.88,29.81,10,10,10,16,7,32,0.00,5,,195
2011-11-15,68,61,53,56,53,51,93,81,68,30.01,29.93,29.83,10,6,0,20,4,29,0.25,8,Fog-Rain,185
2011-11-16,57,50,42,55,51,36,100,88,76,30.02,29.86,29.78,10,4,0,13,4,23,1.67,8,Fog-Rain,26
2011-11-17,45,38,31,34,20,8,76,55,33,30.39,30.22,30.05,10,10,10,16,5,24,T,4,,301
2011-11-18,51,39,26,20,15,10,63,43,23,30.47,30.35,30.22,10,10,10,8,2,13,0.00,0,,180
2011-11-19,65,52,38,44,33,19,57,48,38,30.30,30.21,30.14,10,10,10,16,5,28,0.00,0,,201
2011-11-20,60,58,56,56,53,46,93,80,66,30.27,30.20,30.16,10,5,0,13,3,23,0.47,7,Fog-Rain,224
2011-11-21,62,60,57,58,56,55,100,92,84,30.23,30.17,30.12,10,5,0,16,2,24,0.07,8,Fog-Rain,207
2011-11-22,68,63,58,61,57,54,93,83,73,30.13,29.92,29.78,10,6,1,18,4,26,0.89,8,Rain-Thunderstorm,197
2011-11-23,59,50,41,56,42,37,93,78,63,30.30,30.06,29.78,10,9,2,20,7,31,0.13,6,Rain,291
2011-11-24,57,48,38,38,36,33,92,70,47,30.42,30.34,30.31,10,6,0,7,1,9,0.00,5,Fog,216
2011-11-25,68,53,38,36,29,21,82,51,19,30.33,30.26,30.19,10,10,10,8,4,18,0.00,0,,206
2011-11-26,67,58,48,43,39,28,61,50,38,30.26,30.16,30.02,10,10,10,15,5,26,0.00,1,,193
2011-11-27,64,59,54,54,52,43,93,75,57,30.03,29.92,29.89,10,5,0,14,4,26,0.51,7,Fog-Rain,204
2011-11-28,59,53,46,54,49,43,93,87,80,29.91,29.77,29.63,10,6,0,13,5,22,0.63,8,Fog-Rain,18
2011-11-29,50,42,34,46,34,29,93,78,62,29.82,29.74,29.65,10,10,4,14,5,25,0.05,8,Rain-Snow,235
2011-11-30,39,35,30,32,29,24,96,80,64,30.26,30.02,29.81,10,9,4,13,4,23,0.05,6,Rain-Snow,265